KS4XQ Weather Reports


Display with metric or nautical units.
time (UTC)temp
F
wind
direction
speed
MPH
gust
MPH
rain 1hr
in
rain 24hr
in
rain mn
in
humidity
%
barometer
mb
20260506005503 71 259 0.0 1.0 0.00 0.00 0.00 55 1013.4
20260506005002 71 259 0.0 1.0 0.00 0.00 0.00 54 1013.3
20260506004004 71 259 0.0 1.0 0.00 0.00 0.00 53 1013.4
20260506003502 71 265 0.0 1.0 0.00 0.00 0.00 52 1013.4
20260506003003 71 217 0.0 3.0 0.00 0.00 0.00 52 1013.4
20260506002005 72 189 1.0 4.0 0.00 0.00 0.00 52 1013.4
20260506001505 72 281 0.0 3.0 0.00 0.00 0.00 51 1013.4
20260506001002 72 262 0.0 1.0 0.00 0.00 0.00 51 1013.4
20260506000503 73 262 0.0 1.0 0.00 0.00 0.00 52 1013.3
20260506000006 73 237 0.0 1.0 0.00 0.00 0.00 52 1013.2
20260505235503 73 237 0.0 2.0 0.00 0.00 0.00 51 1013.3
20260505235002 73 270 0.0 2.0 0.00 0.00 0.00 50 1013.5
20260505234504 74 169 0.0 4.0 0.00 0.00 0.00 49 1013.4
20260505234002 74 169 0.0 4.0 0.00 0.00 0.00 48 1013.4
20260505233502 74 258 0.0 2.0 0.00 0.00 0.00 48 1013.4
20260505233002 75 258 0.0 4.0 0.00 0.00 0.00 47 1013.3
20260505232004 75 205 1.0 3.0 0.00 0.00 0.00 46 1013.3
20260505231502 75 298 1.0 3.0 0.00 0.00 0.00 46 1013.4
20260505231002 76 323 1.0 6.0 0.00 0.00 0.00 45 1013.4
20260505230502 76 132 2.0 6.0 0.00 0.00 0.00 45 1013.2
20260505230007 76 198 2.0 5.0 0.00 0.00 0.00 44 1013.3
20260505225502 76 188 1.0 4.0 0.00 0.00 0.00 45 1013.3
20260505225003 76 327 2.0 7.0 0.00 0.00 0.00 44 1013.3
20260505224502 76 196 3.0 10.0 0.00 0.00 0.00 43 1013.4
20260505223004 77 257 1.0 6.0 0.00 0.00 0.00 43 1013.3
20260505222004 77 181 3.0 9.0 0.00 0.00 0.00 43 1013.3
20260505221502 77 164 3.0 10.0 0.00 0.00 0.00 42 1013.4
20260505221002 77 290 3.0 9.0 0.00 0.00 0.00 41 1013.3
20260505220502 77 219 2.0 9.0 0.00 0.00 0.00 41 1013.4
20260505220006 77 296 2.0 8.0 0.00 0.00 0.00 42 1013.3
20260505215502 77 221 2.0 8.0 0.00 0.00 0.00 41 1013.4
20260505215002 77 284 2.0 8.0 0.00 0.00 0.00 42 1013.3
20260505214504 78 315 3.0 8.0 0.00 0.00 0.00 41 1013.5
20260505214003 78 182 3.0 8.0 0.00 0.00 0.00 40 1013.4
20260505213502 78 232 2.0 8.0 0.00 0.00 0.00 41 1013.2
20260505213002 78 238 2.0 7.0 0.00 0.00 0.00 41 1013.3
20260505212004 79 134 2.0 6.0 0.00 0.00 0.00 41 1013.4
20260505211502 79 181 2.0 7.0 0.00 0.00 0.00 43 1013.5
20260505211002 79 165 2.0 9.0 0.00 0.00 0.00 43 1013.5
20260505210502 79 302 2.0 9.0 0.00 0.00 0.00 41 1013.7
20260505210006 79 223 2.0 7.0 0.00 0.00 0.00 40 1013.5
20260505205501 79 335 2.0 7.0 0.00 0.00 0.00 42 1013.6
20260505205002 80 308 2.0 5.0 0.00 0.00 0.00 40 1013.5
20260505204503 80 165 2.0 4.0 0.00 0.00 0.00 42 1013.6
20260505204001 80 136 2.0 8.0 0.00 0.00 0.00 41 1013.7
20260505203501 80 10 2.0 8.0 0.00 0.00 0.00 41 1013.8
20260505203002 80 269 1.0 3.0 0.00 0.00 0.00 41 1013.7
20260505202501 80 288 2.0 9.0 0.00 0.00 0.00 41 1014.0
20260505202002 81 293 2.0 9.0 0.00 0.00 0.00 39 1014.0
20260505201501 81 148 3.0 8.0 0.00 0.00 0.00 37 1014.0
20260505200501 81 111 2.0 9.0 0.00 0.00 0.00 40 1013.9
20260505195501 81 307 2.0 5.0 0.00 0.00 0.00 39 1014.1
20260505194502 80 230 4.0 16.0 0.00 0.00 0.00 41 1014.4
20260505194003 80 316 4.0 16.0 0.00 0.00 0.00 37 1014.6
20260505193501 81 360 3.0 11.0 0.00 0.00 0.00 38 1014.6
20260505193001 81 299 2.0 11.0 0.00 0.00 0.00 40 1014.8
20260505192500 81 233 2.0 7.0 0.00 0.00 0.00 40 1014.9
20260505192002 80 170 3.0 8.0 0.00 0.00 0.00 42 1015.1
20260505191501 80 323 4.0 12.0 0.00 0.00 0.00 42 1014.8
20260505191001 79 304 4.0 14.0 0.00 0.00 0.00 39 1015.1
20260505190501 79 283 3.0 13.0 0.00 0.00 0.00 41 1015.3
20260505190006 79 304 3.0 13.0 0.00 0.00 0.00 40 1015.4
20260505185501 80 240 3.0 13.0 0.00 0.00 0.00 40 1015.2
20260505185001 80 296 2.0 7.0 0.00 0.00 0.00 42 1015.3
20260505184501 79 171 3.0 8.0 0.00 0.00 0.00 42 1015.4
20260505184002 79 309 2.0 8.0 0.00 0.00 0.00 41 1015.4
20260505183500 79 278 2.0 9.0 0.00 0.00 0.00 41 1015.4
20260505183001 79 13 3.0 9.0 0.00 0.00 0.00 42 1015.5
20260505182501 78 266 3.0 9.0 0.00 0.00 0.00 41 1015.5
20260505182002 78 301 3.0 8.0 0.00 0.00 0.00 43 1015.7
20260505181501 78 325 3.0 10.0 0.00 0.00 0.00 44 1015.7
20260505181001 78 304 3.0 10.0 0.00 0.00 0.00 43 1015.7
20260505180005 78 284 5.0 13.0 0.00 0.00 0.00 43 1016.1
20260505175501 78 226 4.0 17.0 0.00 0.00 0.00 41 1016.4
20260505175001 78 247 3.0 12.0 0.00 0.00 0.00 40 1016.4
20260505174503 78 287 3.0 10.0 0.00 0.00 0.00 40 1016.5
20260505174001 77 279 3.0 10.0 0.00 0.00 0.00 39 1016.5
20260505173501 78 328 3.0 11.0 0.00 0.00 0.00 41 1016.4
20260505173001 78 340 4.0 12.0 0.00 0.00 0.00 37 1016.3
20260505172504 77 327 3.0 12.0 0.00 0.00 0.00 40 1016.5
20260505172001 77 315 3.0 10.0 0.00 0.00 0.00 37 1016.4
20260505171502 78 331 3.0 9.0 0.00 0.00 0.00 37 1016.4
20260505170502 79 334 5.0 14.0 0.00 0.00 0.00 35 1016.3
20260505165503 78 264 3.0 11.0 0.00 0.00 0.00 40 1016.3
20260505164502 77 267 4.0 13.0 0.00 0.00 0.00 41 1016.3
20260505164002 77 327 4.0 10.0 0.00 0.00 0.00 42 1016.3
20260505163503 77 254 4.0 10.0 0.00 0.00 0.00 45 1016.4
20260505163002 77 300 4.0 11.0 0.00 0.00 0.00 45 1016.5
20260505162501 77 309 4.0 11.0 0.00 0.00 0.00 46 1016.4
20260505161502 76 302 3.0 10.0 0.00 0.00 0.00 46 1016.5
20260505161002 76 128 2.0 7.0 0.00 0.00 0.00 52 1016.6
20260505160501 75 259 2.0 8.0 0.00 0.00 0.00 49 1016.6
20260505153002 74 181 1.0 3.0 0.00 0.00 0.00 55 1016.9
20260505152504 74 317 1.0 4.0 0.00 0.00 0.00 57 1016.8
20260505152002 73 182 2.0 5.0 0.00 0.00 0.00 56 1016.9
20260505151503 73 257 2.0 5.0 0.00 0.00 0.00 57 1017.0
20260505151001 72 194 2.0 6.0 0.00 0.00 0.00 58 1017.0
20260505150503 72 304 2.0 6.0 0.00 0.00 0.00 59 1017.1
20260505125000 55 290 2.0 7.0 0.00 0.00 0.00 87 1016.4
20260505124502 55 295 2.0 7.0 0.00 0.00 0.00 88 1016.3
20260505124000 54 290 2.0 4.0 0.00 0.00 0.00 88 1016.3
20260505123500 54 290 1.0 4.0 0.00 0.00 0.00 89 1016.3
20260505123003 53 269 1.0 4.0 0.00 0.00 0.00 89 1016.1
20260505122502 53 279 1.0 3.0 0.00 0.00 0.00 88 1016.2
20260505122000 53 295 2.0 5.0 0.00 0.00 0.00 89 1016.1
20260505121500 52 298 2.0 5.0 0.00 0.00 0.00 89 1016.1
20260505121000 52 285 1.0 6.0 0.00 0.00 0.00 89 1016.1
20260505120003 51 280 1.0 3.0 0.00 0.00 0.00 91 1015.9
20260505115500 51 315 0.0 2.0 0.00 0.00 0.00 91 1016.0
20260505115002 50 246 0.0 2.0 0.00 0.00 0.00 91 1016.0
20260505114500 50 242 0.0 1.0 0.00 0.00 0.00 91 1015.9
20260505114000 49 186 1.0 2.0 0.00 0.00 0.00 91 1015.8
20260505113000 49 186 0.0 2.0 0.00 0.00 0.00 90 1015.7
20260505112002 49 186 0.0 1.0 0.00 0.00 0.00 89 1015.8
20260505111500 49 186 0.0 1.0 0.00 0.00 0.00 89 1015.8
20260505111005 48 186 0.0 1.0 0.00 0.00 0.00 90 1015.9
20260505110500 48 186 0.0 2.0 0.00 0.00 0.00 90 1016.0
20260505102002 47 186 0.0 0.0 0.00 0.00 0.00 89 1015.6
20260505100500 47 186 0.0 0.0 0.00 0.00 0.00 89 1015.5
20260505100006 47 186 0.0 0.0 0.00 0.00 0.00 88 1015.5
20260505095000 47 186 1.0 2.0 0.00 0.00 0.00 88 1015.6
20260505094502 47 186 0.0 1.0 0.00 0.00 0.00 88 1015.5
20260505094001 47 186 0.0 0.0 0.00 0.00 0.00 87 1015.6
20260505093500 47 186 0.0 0.0 0.00 0.00 0.00 86 1015.6
20260505093003 47 186 0.0 0.0 0.00 0.00 0.00 86 1015.6
20260505092500 48 186 0.0 0.0 0.00 0.00 0.00 87 1015.6
20260505092000 48 186 0.0 0.0 0.00 0.00 0.00 87 1015.6
20260505090500 48 186 0.0 0.0 0.00 0.00 0.00 87 1015.5
20260505090002 48 186 0.0 0.0 0.00 0.00 0.00 84 1015.3
20260505085501 48 186 0.0 0.0 0.00 0.00 0.00 85 1015.3
20260505084501 49 186 0.0 0.0 0.00 0.00 0.00 84 1015.3
20260505084001 49 186 0.0 0.0 0.00 0.00 0.00 85 1015.3
20260505083501 49 186 0.0 0.0 0.00 0.00 0.00 85 1015.1
20260505083002 49 186 0.0 0.0 0.00 0.00 0.00 85 1015.2
20260505082501 49 186 0.0 0.0 0.00 0.00 0.00 85 1015.1
20260505082001 49 186 0.0 0.0 0.00 0.00 0.00 85 1015.1
20260505081500 49 186 0.0 0.0 0.00 0.00 0.00 85 1015.1
20260505081003 49 186 0.0 0.0 0.00 0.00 0.00 86 1015.1
20260505080501 49 186 0.0 1.0 0.00 0.00 0.00 86 1014.9
20260505080003 49 186 0.0 1.0 0.00 0.00 0.00 86 1015.0
20260505075502 49 186 0.0 1.0 0.00 0.00 0.00 85 1015.0
20260505075001 49 186 0.0 0.0 0.00 0.00 0.00 84 1014.9
20260505074501 49 186 0.0 0.0 0.00 0.00 0.00 85 1014.9
20260505074000 49 186 0.0 0.0 0.00 0.00 0.00 85 1015.0
20260505073502 49 186 0.0 0.0 0.00 0.00 0.00 85 1014.9
20260505073000 49 186 0.0 0.0 0.00 0.00 0.00 85 1015.0
20260505072500 49 186 0.0 0.0 0.00 0.00 0.00 85 1014.9
20260505071503 49 186 0.0 1.0 0.00 0.00 0.00 85 1015.2
20260505071000 49 186 0.0 2.0 0.00 0.00 0.00 85 1015.1
20260505070500 49 186 1.0 2.0 0.00 0.00 0.00 85 1015.2
20260505070005 50 186 0.0 2.0 0.00 0.00 0.00 84 1015.2
20260505065500 50 186 0.0 0.0 0.00 0.00 0.00 83 1015.1
20260505065000 50 186 0.0 0.0 0.00 0.00 0.00 83 1015.0
20260505064502 50 186 0.0 0.0 0.00 0.00 0.00 82 1015.1
20260505064000 50 186 0.0 0.0 0.00 0.00 0.00 82 1015.1
20260505063501 50 186 0.0 0.0 0.00 0.00 0.00 82 1015.0
20260505063000 50 186 0.0 0.0 0.00 0.00 0.00 81 1015.1
20260505062000 51 186 0.0 0.0 0.00 0.00 0.00 81 1015.2
20260505061500 51 186 0.0 0.0 0.00 0.00 0.00 82 1015.2
20260505060500 51 186 0.0 0.0 0.00 0.00 0.00 83 1015.1
20260505060005 52 186 0.0 0.0 0.00 0.00 0.00 82 1015.0
20260505055500 52 186 0.0 0.0 0.00 0.00 0.00 82 1015.1
20260505054502 53 186 0.0 0.0 0.00 0.00 0.00 81 1015.1
20260505054000 53 186 0.0 0.0 0.00 0.00 0.00 79 1015.1
20260505053500 53 186 0.0 0.0 0.00 0.00 0.00 80 1015.2
20260505053000 53 186 0.0 0.0 0.00 0.00 0.00 80 1015.2
20260505052505 54 186 0.0 0.0 0.00 0.00 0.00 79 1015.2
20260505052000 54 186 0.0 0.0 0.00 0.00 0.00 78 1015.3
20260505051500 54 186 0.0 0.0 0.00 0.00 0.00 78 1015.3
20260505050500 55 186 0.0 0.0 0.00 0.00 0.00 78 1015.4
20260505041500 56 190 0.0 0.0 0.00 0.00 0.00 71 1015.3
20260505040500 56 190 0.0 0.0 0.00 0.00 0.00 70 1015.3
20260505040008 57 190 0.0 1.0 0.00 0.00 0.00 70 1015.3
20260505035502 57 190 0.0 1.0 0.00 0.00 0.00 70 1015.4
20260505035002 57 190 0.0 0.0 0.00 0.00 0.00 69 1015.4
20260505034502 57 190 0.0 0.0 0.00 0.00 0.00 69 1015.4
20260505033502 57 190 0.0 0.0 0.00 0.00 0.00 68 1015.5
20260505033002 58 190 0.0 0.0 0.00 0.00 0.00 68 1015.5
20260505032502 58 190 0.0 0.0 0.00 0.00 0.00 68 1015.4
20260505032004 58 190 0.0 0.0 0.00 0.00 0.00 68 1015.4
20260505031002 58 190 0.0 0.0 0.00 0.00 0.00 67 1015.4
20260505030504 58 190 0.0 0.0 0.00 0.00 0.00 67 1015.4
20260505030005 58 190 0.0 0.0 0.00 0.00 0.00 68 1015.4
20260505025503 59 190 0.0 0.0 0.00 0.00 0.00 68 1015.4
20260505025005 59 190 0.0 0.0 0.00 0.00 0.00 68 1015.5
20260505024503 59 190 0.0 0.0 0.00 0.00 0.00 68 1015.5
20260505024003 59 190 0.0 1.0 0.00 0.00 0.00 68 1015.4
20260505023501 59 190 0.0 1.0 0.00 0.00 0.00 67 1015.2
20260505023005 60 190 0.0 0.0 0.00 0.00 0.00 67 1015.1
20260505021503 60 190 0.0 0.0 0.00 0.00 0.00 65 1015.0
20260505020503 61 190 0.0 1.0 0.00 0.00 0.00 65 1015.0
20260505020006 61 190 0.0 0.0 0.00 0.00 0.00 64 1015.0
20260505015003 61 190 0.0 0.0 0.00 0.00 0.00 61 1014.9
20260505014504 62 190 0.0 0.0 0.00 0.00 0.00 61 1014.8
20260505014003 62 190 0.0 0.0 0.00 0.00 0.00 60 1014.8
20260505013504 62 190 0.0 0.0 0.00 0.00 0.00 60 1014.8
20260505013003 62 190 0.0 0.0 0.00 0.00 0.00 60 1014.7
20260505012502 63 190 0.0 0.0 0.00 0.00 0.00 60 1014.6
20260505012004 63 190 0.0 0.0 0.00 0.00 0.00 59 1014.6
20260505011003 64 190 0.0 0.0 0.00 0.00 0.00 58 1014.6
20260505010503 64 190 0.0 0.0 0.00 0.00 0.00 57 1014.5
20260505010006 65 190 0.0 0.0 0.00 0.00 0.00 57 1014.5